Regional Weather Roundup
Issued by NWS San Diego, CA

Home | Current Version | Previous Version | Text Only | Print | Product List | Glossary On
Versions: 1 2 3 4 5 6 7 8 9 10 11 12 13 14 15 16 17 18 19 20 21 22 23 24 25 26 27 28 29 30 31 32 33 34 35 36 37 38 39 40 41 42 43 44 45 46 47 48 49 50
000
ASUS46 KSGX 221010
RWRSGX

SAN DIEGO HOURLY WEATHER ROUNDUP
NATIONAL WEATHER SERVICE SAN DIEGO CA
300 AM PDT MON SEP 22 2014

NOTE: "FAIR" INDICATES FEW OR NO CLOUDS BELOW 12,000 FEET WITH NO
SIGNIFICANT WEATHER AND/OR OBSTRUCTIONS TO VISIBILITY.

CAZ042-043-060-061-PZZ750-775-221100-

GREATER SAN DIEGO AREA

CITY           SKY/WX    TMP DP  RH WIND       PRES   REMARKS
LINDBERGH FLD  PTCLDY    68  62  81 N3        29.96F
POINT LOMA       N/A     67  63  86 NW10        N/A
NATIONAL CITY    N/A     68  64  86 CALM      29.95F
CHULA VISTA      N/A     64  61  91 CALM      29.89F
IMPERIAL BEACH CLOUDY    66  62  87 CALM      29.95S
BROWN FIELD    CLEAR     63  60  90 CALM      29.95F
MIRAMAR MCAS   MOCLDY    66  61  84 N6        29.96S
MONTGOMERY FLD CLEAR     67  62  84 N5        29.96S

$$

NORTH SAN DIEGO COUNTY

CITY           SKY/WX    TMP DP  RH WIND       PRES   REMARKS
CAMP PENDLETON PTCLDY    60  55  83 NE5       29.95F
OCEANSIDE AP   CLEAR    N/A N/A N/A CALM      29.95S
OCEANSIDE HBR    N/A     63  61  93 NE3       29.98S
VISTA            N/A     61  57  87 CALM      29.93F
CARLSBAD       CLEAR     67  63  87 SE3       29.95S
DEL MAR          N/A     67  64  89 CALM      29.97F
LA JOLLA SCRIP   N/A     68  65  89 N2        29.92F
FALLBROOK        N/A     62  62 100 CALM      29.96F
ESCONDIDO        N/A     63  60  88 CALM      29.97F
SAN MARCOS       N/A     63  59  87 CALM      29.93F
POWAY            N/A     62  58  89 CALM      29.96S

$$

EAST SAN DIEGO COUNTY

CITY           SKY/WX    TMP DP  RH WIND       PRES   REMARKS
RAMONA         CLEAR     54  52  93 CALM      29.98S
SANTEE LAKES     N/A     63  60  92 CALM      29.97S
LA MESA          N/A     65  63  92 CALM      29.89F
JAMUL            N/A     59  57  92 CALM      29.93F
MT. LAGUNA OBS   N/A     61  38  43 E3        29.76F
CAMPO            N/A     55  44  66 NE5       29.98F

$$

ORANGE COUNTY AND THE LOS ANGELES BASIN

CITY           SKY/WX    TMP DP  RH WIND       PRES   REMARKS
JOHN WAYNE AP  CLEAR     70  61  73 CALM      29.95F
LAGUNA BEACH     N/A    N/A  18   0 CALM      29.91S
LAKE FOREST FR   N/A     62  56  81 CALM      29.86S
SANTA ANA        N/A     64  59  85 CALM      29.91S
HUNTINGTON BCH   N/A     62  60  94 CALM      29.98F
LOS ALAMITOS   FAIR      61  60  97 CALM      29.96S
FULLERTON      CLEAR     64  59  83 CALM      29.95S
LONG BEACH     CLEAR     64  61  90 CALM      29.96S
L.A. AP        PTCLDY    67  63  87 CALM      29.96F
L.A. DOWNTOWN  CLEAR     66  61  84 CALM      29.96S

$$

THE INLAND EMPIRE

CITY           SKY/WX    TMP DP  RH WIND       PRES   REMARKS
CORONA         CLEAR     57  54  90 CALM      29.97F
CHINO          CLEAR     60  57  89 N3        29.98F FOG
ONTARIO        CLEAR     65  58  78 CALM      29.97F
RIVERSIDE AP   CLEAR     63  58  83 CALM      29.97F
RIV CYN CREST    N/A     64  64  99 CALM      29.95S
MORENO VALLEY    N/A     63  60  89 CALM      29.17F
MARCH ARB      CLEAR     60  55  86 W1        29.99F
HORSETHIEF CYN   N/A     60  54  79 CALM      29.98F
PERRIS           N/A     63  59  85 NE1       29.96F
MENIFEE          N/A     63  59  86 CALM      30.03S
HEMET EAST       N/A     62  47  57 CALM      29.95F
FRENCH VALLEY  FAIR      63  57  82 CALM      29.98F
TEMECULA         N/A     61  58  89 CALM      29.96R

$$

SAN BERNARDINO AND RIVERSIDE COUNTY MOUNTAINS

CITY           SKY/WX    TMP DP  RH WIND       PRES   REMARKS
BIG BEAR AP    CLEAR     39  32  75 CALM      30.27F
PINE COVE        N/A     58  35  41 CALM      29.85F

$$

SOUTHERN DESERT INCLUDING THE COACHELLA VALLEY

CITY           SKY/WX    TMP DP  RH WIND       PRES   REMARKS
PALM SPRINGS   CLEAR     79  55  43 CALM      29.89F
THOUSAND PALMS   N/A     81  47  29 NW5       29.84S
PALM DESERT      N/A     76  58  52 CALM        N/A
THERMAL        CLEAR     77  55  46 N7        29.83S
BLYTHE         CLEAR     81  49  32 SW3       29.86S
IMPERIAL AP    CLEAR     77  51  40 CALM      29.83S
EL CENTRO NAS  CLEAR     74  53  48 SW7       29.83S
YUMA AZ        CLEAR     83  53  35 SE3       29.85F

$$

UPPER DESERT

CITY           SKY/WX    TMP DP  RH WIND       PRES   REMARKS
VICTORVILLE AP CLEAR     64  46  52 SE8       30.04F
HESPERIA         N/A     61  45  54 W5        30.04F
APPLE VALLEY     N/A     59  44  58 CALM      30.12S
PALMDALE       CLEAR     62  37  39 S6        30.03R
LANCASTER      CLEAR     59  42  53 CALM      30.02R
EDWARDS AFB    CLEAR     63  45  51 SW3       30.00R
DAGGETT        CLEAR     72  44  36 W9        29.98S
29 PALMS N     CLEAR     72  42  34 W6        30.05S
NEEDLES        CLEAR     79  46  31 N3        29.89F

$$

REGIONAL REPORTS

CITY           SKY/WX    TMP DP  RH WIND       PRES   REMARKS
SANTA BARBARA  CLEAR     60  56  86 N3        29.94S
SANDBERG       CLEAR     64  47  53 NW15      30.13S
MT. WILSON       N/A     61  23  23 E7          N/A
LAS VEGAS NV   CLEAR     78  46  32 SW7       29.94S
PHOENIX AZ     CLEAR     83  55  38 SW6       29.90F
TIJUANA        CLEAR     64  57  77 NW5       29.98F

$$

OFFSHORE ISLANDS

CITY           SKY/WX    TMP DP  RH WIND       PRES   REMARKS
CATALINA ARPT  FOG       59  57  93 SW7       29.99F VSB<1/4
SAN NICOLAS IS MOCLDY   N/A N/A N/A W16       29.96F

$$

MARINE AND OFFSHORE BUOY REPORTS

STATION/POSITION SKY/WX   TEMP    WIND        PRES    SWELL
                          AIR SEA DIR/SP/G            HT/PER/DIR
                          (F)     (DEG/KT/KT) (MB)    (FT/S/D)
TANNER BANKS               68 71  310/ 14/ 17 1015.1F   5/300/12
S CLEMENTE BASIN           69 74  290/  6/ 10 1014.3F   3/260/13
SAN NICOLAS IS.               70                N/A     5/300/12
SO. S. ROSA ISLA           66 69  320/ 21/ 23 1013.8F   3/13
W. S. BARBARA CH           64 64  330/ 17/ 21 1013.6F   5/310/12
S. MONICA BASIN            68 72  360/  6/  6 1014.1R   3/150/15
S PEDRO CHANNEL               73                N/A     2/170/14
DANA POINT                    70                N/A     2/200/13
CMP PENDLETON NS              69                N/A     2/220/13
OCEANSIDE OFFSHR              71                N/A     2/220/13
TORREY PINES OTR              72                N/A     2/250/13
LA JOLLA 1                 70 72  340/  6/  8 1014.3S
MISSION BAY BUOY              72                N/A     2/250/13
SAN DIEGO BAY                 76              1014.7F

$$




USA.gov is the U.S. government's official web portal to all federal, state and local government web resources and services.